Valdosta Regional, GA

2:22 PM EDT on March 24, 2017 (GMT -0400)
Valdosta Regional

Weather History for KVLD - March, 2014

Change the Weather History Date:

Sunday, March 9, 2014

  Actual Average Record
Temperature  
Mean Temperature 63 °F 59 °F  
Max Temperature 79 °F 72 °F 82 °F (2002)
Min Temperature 46 °F 46 °F 30 °F (2008)
Degree Days  
Heating Degree Days 2 7  
Month to date heating degree days 89 68  
Since 1 July heating degree days 1140 1448  
Cooling Degree Days 0 1  
Month to date cooling degree days 1 9  
Year to date cooling degree days 33 19  
Growing Degree Days 12 (Base 50)    
Moisture  
Dew Point 47 °F    
Average Humidity 61    
Maximum Humidity 89    
Minimum Humidity 32    
Precipitation  
Precipitation 0.00 in 0.16 in 1.83 in (2011)
Month to date precipitation 1.54  
Year to date precipitation 10.27  
Sea Level Pressure  
Sea Level Pressure 30.18 in    
Wind  
Wind Speed 1 mph (NW)    
Max Wind Speed 8 mph    
Max Gust Speed 12 mph    
Visibility 9 miles    
Events      
T = Trace of Precipitation, MM = Missing Value Source: NWS Daily Summary

Daily Weather History Graph

Daily Weather History Graph

Search for Another Location

Airport or City:

Trip Planner

Search our weather history database for the weather conditions in past years. The results will help you decide how hot, cold, wet, or windy it might be!

Date:

Astronomy

Mar. 09, 2014 Rise Set
Actual Time 7:50 AM EDT 7:37 PM EDT
Civil Twilight 7:26 AM EDT 8:01 PM EDT
Nautical Twilight 6:58 AM EDT 8:29 PM EDT
Astronomical Twilight 6:30 AM EDT 8:57 PM EDT
Moon 1:45 PM EDT (3/9) 3:58 AM EDT (3/9)
Length of Visible Light 12h 35m
Length of Day
11h 47m
First Quarter, 61% of the Moon is Illuminated
Mar 9
First Quarter
Mar 16
Full
Mar 23
Last Quarter
Mar 30
New
Apr 7
First Quarter

Hourly Weather History & Observations

Time (EDT) Temp. Dew Point Humidity Pressure Visibility Wind Dir Wind Speed Gust Speed Precip Events Conditions
12:53 AM 48.9 °F 44.1 °F 83% 30.19 in 10.0 mi Calm Calm - N/A   Clear
1:53 AM 48.0 °F 43.0 °F 83% 30.19 in 10.0 mi Calm Calm - N/A   Clear
3:53 AM 48.0 °F 44.1 °F 86% 30.19 in 10.0 mi Calm Calm - N/A   Clear
4:53 AM 48.0 °F 43.0 °F 83% 30.18 in 8.0 mi Calm Calm - N/A   Clear
5:53 AM 46.9 °F 43.0 °F 86% 30.18 in 8.0 mi Calm Calm - N/A   Clear
6:53 AM 46.9 °F 42.1 °F 83% 30.20 in 6.0 mi Calm Calm - N/A   Haze
7:53 AM 46.0 °F 42.1 °F 86% 30.22 in 4.0 mi Calm Calm - N/A   Clear
8:53 AM 52.0 °F 48.0 °F 86% 30.23 in 10.0 mi Calm Calm - N/A   Clear
9:53 AM 62.1 °F 50.0 °F 65% 30.25 in 10.0 mi NW 3.5 mph - N/A   Clear
10:53 AM 66.0 °F 48.9 °F 54% 30.25 in 10.0 mi North 5.8 mph - N/A   Clear
11:53 AM 72.0 °F 48.9 °F 44% 30.24 in 10.0 mi Variable 4.6 mph - N/A   Clear
12:53 PM 73.9 °F 48.9 °F 41% 30.22 in 10.0 mi Calm Calm - N/A   Clear
1:53 PM 75.9 °F 48.0 °F 37% 30.19 in 10.0 mi Variable 3.5 mph - N/A   Clear
2:53 PM 75.9 °F 46.9 °F 36% 30.16 in 10.0 mi Calm Calm - N/A   Clear
3:53 PM 78.1 °F 48.0 °F 35% 30.14 in 10.0 mi Calm Calm - N/A   Clear
4:53 PM 78.1 °F 46.0 °F 32% 30.13 in 10.0 mi Variable 5.8 mph - N/A   Clear
5:53 PM 75.0 °F 48.0 °F 38% 30.13 in 10.0 mi Variable 4.6 mph - N/A   Clear
6:53 PM 73.0 °F 48.0 °F 41% 30.13 in 10.0 mi Variable 3.5 mph - N/A   Clear
7:53 PM 68.0 °F 48.0 °F 49% 30.13 in 10.0 mi Calm Calm - N/A   Clear
8:53 PM 61.0 °F 48.9 °F 64% 30.13 in 10.0 mi Calm Calm - N/A   Clear
9:53 PM 61.0 °F 48.9 °F 64% 30.15 in 10.0 mi Calm Calm - N/A   Clear
10:53 PM 57.9 °F 48.9 °F 72% 30.17 in 10.0 mi Calm Calm - N/A   Clear
11:53 PM 57.0 °F 48.9 °F 74% 30.16 in 10.0 mi South 3.5 mph - N/A   Clear
12:53 AM 57.9 °F 48.9 °F 72% 30.17 in 10.0 mi Calm Calm - N/A   Clear